User: anonymous   Login
Location: Caltech
(34.1382°N, 118.1253°W)
Time: 16:26:59
(UTC-08:00)
Language:

COSMOS 2428 - Orbit

View from above orbital plane
View from above orbital plane
View from above satellite
View from above satellite

Ground track
Ground track

The orbit data is extracted from the following two-line orbital elements,

1 31792U 07029A   15057.91349339  .00000134  00000-0  98010-4 0  9999
2 31792 070.9850 016.0314 0006756 130.8816 288.6066 14.12534408395284
Epoch (UTC): 26 February 2015 21:55:25
Eccentricity: 0.0006756
inclination: 70.9850°
perigee height: 846 km
apogee height: 855 km
right ascension of ascending node: 16.0314°
argument of perigee: 130.8816°
revolutions per day: 14.12534408
mean anomaly at epoch: 288.6066°
orbit number at epoch: 39528

The dashed part of the orbit path shows where the satellite is in the earth's shadow,  

DLR